Location: Home
(42.5358°N, 72.7383°W)
Time: 17:23:05
(UTC-05:00)

Tiros 1 - Pass Details

Date: 04 December 2021
Orbit: 629 x 664 km, 48.4° (Epoch: 18 January)

Event Time Altitude Azimuth Distance (km) Brightness Sun altitude
Rises 23:45:09 0° 295° (WNW) 2,957 - -69.8°
Reaches altitude 10° 23:47:30 10° 292° (WNW) 2,050 - -69.8°
Maximum altitude 23:52:09 60° 213° (SSW) 747 - -69.7°
Drops below altitude 10° 23:56:50 10° 134° (SE) 2,062 - -69.6°
Sets 23:59:13 0° 131° (SE) 2,975 - -69.5°
